SCP
0 0 1 1 0 0 0 0 0 0 0 0 0 0 0 0 0 0 0 0 0 0 0 0 0 0 0 0 0 0 0 0 0 0 0 0 0 0 0 0 0 0 0
1 1 1 1 0 0 0 0 0 0 0 0 0 0 0 0 0 0 0 0 0 0 0 0 0 0 0 0 0 0 0 0 0 0 0 0 0 0 0 0 0 0 0
1 1 1 1 1 0 0 0 0 0 0 0 0 0 0 0 0 0 0 0 0 0 0 0 0 0 0 0 0 0 0 0 0 0 0 0 0 0 0 0 0 0 0
1 1 1 1 1 1 0 0 0 0 0 0 0 0 0 0 0 0 0 0 0 0 0 0 0 0 0 0 0 0 0 0 0 0 0 0 0 0 0 0 0 0 0
1 1 1 1 1 1 1 0 0 0 0 0 0 0 0 0 0 0 0 0 0 0 0 0 0 0 0 0 0 0 0 0 0 0 0 0 0 0 0 0 0 0 0
1 1 1 1 1 1 1 1 0 0 0 0 0 0 0 0 0 0 0 0 0 0 0 0 0 0 0 0 0 0 0 0 0 0 0 0 0 0 0 0 0 0 0
1 1 1 1 1 1 1 1 1 0 0 0 0 0 0 0 0 0 0 0 0 0 0 0 0 0 0 0 0 0 0 0 0 0 0 0 0 0 0 0 0 0 0
1 1 1 1 1 1 1 1 1 1 0 0 0 0 0 0 0 0 0 0 0 0 0 0 0 0 0 0 0 0 0 0 0 0 0 0 0 0 0 0 0 0 0
1 1 1 1 1 1 1 1 1 1 0 0 0 0 0 0 0 0 0 0 0 0 0 0 0 0 0 0 0 0 0 0 0 0 0 0 0 0 0 0 0 0 0
1 1 1 1 1 1 1 1 1 1 0 0 0 0 0 0 0 0 0 0 0 0 0 0 0 0 0 0 0 0 0 0 0 0 0 0 0 0 0 0 0 0 0
1 1 1 1 1 1 1 1 1 1 0 0 0 0 0 0 0 0 0 0 0 0 0 0 0 0 0 0 0 0 0 0 0 0 0 0 0 0 0 0 0 0 0
0 1 1 1 1 1 1 1 1 1 0 0 0 0 0 0 0 0 0 0 0 0 0 0 0 0 0 0 0 0 0 0 0 0 0 0 0 0 0 0 0 0 0
0 0 1 1 1 1 1 1 1 1 1 0 0 0 0 0 0 0 0 0 0 0 0 0 0 0 0 0 0 0 0 0 0 0 0 0 0 0 0 0 0 0 0
0 0 0 1 1 1 1 1 1 1 1 0 0 0 0 0 0 0 0 0 0 0 0 0 0 0 0 0 0 0 0 0 0 0 0 0 0 0 0 0 0 0 0
0 0 0 0 1 1 1 1 1 1 1 0 0 0 0 0 0 0 0 0 0 0 0 0 0 0 0 0 0 0 0 0 0 0 0 0 0 0 0 0 0 0 0
0 0 0 0 0 1 1 1 1 1 1 1 0 0 0 0 0 0 0 0 0 0 0 0 0 0 0 0 0 0 0 0 0 0 0 0 0 0 0 0 0 0 0
0 0 0 0 0 1 1 1 1 1 1 1 1 0 0 0 0 0 0 0 0 0 0 0 0 0 0 0 0 0 0 0 0 0 0 0 0 0 0 0 0 0 0
0 0 0 0 0 0 1 1 1 1 1 1 0 0 0 0 0 0 0 0 0 0 0 0 0 0 0 0 0 0 0 0 0 0 0 0 0 0 0 0 0 0 0
0 0 0 0 0 0 0 1 1 1 1 1 0 0 0 0 0 0 0 0 0 0 0 0 0 0 0 0 0 0 0 0 0 0 0 0 0 0 0 0 0 0 0
0 0 0 0 0 0 0 1 1 1 1 0 0 0 0 0 0 0 0 0 0 0 0 0 0 0 0 0 0 0 0 0 0 0 0 0 0 0 0 0 0 0 0
0 0 0 0 0 0 0 0 0 0 0 0 0 0 0 0 0 0 0 0 0 0 0 0 0 0 0 0 0 0 0 0 0 0 0 0 0 0 0 0 0 0 0
0 0 0 0 0 0 0 0 0 0 0 0 0 0 0 0 0 0 0 0 0 0 0 0 0 0 0 0 0 0 0 0 0 0 0 0 0 0 0 0 0 0 0
0 0 0 0 0 0 0 0 0 0 0 0 0 0 0 0 0 0 0 0 0 0 0 0 0 0 0 0 0 0 0 0 0 0 0 0 0 0 0 0 0 0 0
0 0 0 0 0 0 0 0 0 0 0 0 0 0 0 0 0 0 0 0 0 0 0 0 0 0 0 0 0 0 0 0 0 0 0 0 0 0 0 0 0 0 0
0 0 0 0 0 0 0 0 0 0 0 0 0 0 0 0 0 0 0 0 0 0 0 0 0 0 0 0 0 0 0 0 0 0 0 0 0 0 0 0 0 0 0
0 0 0 0 0 0 0 0 0 0 0 0 0 0 0 0 0 0 0 0 0 0 0 0 0 0 0 0 0 0 0 0 0 0 0 0 0 0 0 0 0 0 0
Wind_Speed
6 9 11 11 10 10 9 9 9 10 10 10 10 11 11 11 11 11 11 11 12 12 12 12 12 12 13 12 12 12 12 12 12 13 13 13 13 12 12 12 11 8 12
9 10 12 11 10 10 10 10 9 10 9 9 10 10 10 11 11 11 11 11 11 11 11 11 11 12 12 11 11 11 11 10 10 10 10 10 11 11 12 11 11 8 12
9 11 11 11 10 10 10 10 10 10 9 9 10 10 10 10 10 10 10 10 11 10 10 11 11 11 10 10 10 10 9 8 8 8 9 5 7 11 12 12 12 12 11
8 10 10 11 10 10 10 10 10 10 9 9 9 9 9 9 9 10 10 10 10 10 10 10 10 10 9 9 9 9 8 7 7 8 5 5 6 11 12 12 11 11 11
8 9 10 11 10 10 10 10 10 10 9 9 9 9 9 9 9 9 9 9 9 9 9 9 9 9 9 8 8 7 6 6 7 7 5 5 5 10 11 11 11 11 10
7 8 9 11 10 10 10 10 9 9 9 9 9 9 8 8 8 8 8 9 8 8 8 8 8 8 8 8 7 6 5 5 5 4 5 5 4 9 10 10 10 10 10
7 7 9 10 11 10 10 10 9 9 9 9 9 9 8 8 8 8 8 8 8 8 8 8 8 8 8 7 6 5 5 4 4 4 5 4 5 10 10 9 9 9 9
6 7 9 9 10 10 10 10 9 9 9 9 9 8 8 8 8 8 8 8 7 7 7 7 7 7 6 6 5 4 3 4 4 5 4 4 7 8 8 8 8 8 8
5 7 7 7 8 10 10 9 8 8 8 9 8 8 7 7 7 7 8 7 7 7 7 6 6 6 5 5 4 2 2 3 2 3 5 3 6 7 7 7 7 7 7
3 5 6 6 6 7 7 9 8 8 8 8 8 7 7 7 6 7 7 6 6 7 6 5 5 5 4 3 2 1 2 2 2 3 3 4 7 6 6 6 6 6 6
2 3 5 6 5 6 6 8 8 8 8 8 7 7 6 4 4 4 5 5 5 6 6 5 4 4 3 1 1 1 1 0 2 3 3 5 6 5 5 5 5 5 5
2 2 3 4 5 5 5 6 5 5 6 5 5 5 4 3 3 4 5 5 5 5 5 4 4 3 1 1 1 2 0 1 2 2 3 6 5 4 4 4 4 4 5
4 3 2 3 4 4 4 4 4 3 4 4 5 5 3 3 3 3 2 3 3 3 3 3 2 1 0 0 0 0 0 1 2 2 3 5 4 3 3 3 3 4 4
4 3 3 2 3 4 4 4 4 4 4 3 4 5 3 2 2 2 2 2 2 2 2 2 1 1 1 0 1 1 1 1 2 2 3 5 3 3 3 3 3 3 4
4 4 4 3 4 4 4 3 3 4 4 4 4 4 4 3 3 2 2 2 2 2 2 2 1 1 1 1 1 1 1 2 2 2 2 4 3 2 2 3 3 3 4
5 4 3 4 4 4 4 3 3 3 4 4 4 4 4 3 3 3 2 2 1 1 2 1 2 1 1 1 1 1 1 1 1 2 2 3 3 2 2 3 3 4 4
5 5 3 4 4 4 4 4 3 3 4 4 4 4 4 3 3 3 2 1 1 1 2 1 1 1 1 1 1 1 1 1 1 1 2 2 2 2 1 2 3 4 4
4 5 4 3 3 3 4 3 2 2 3 3 3 4 5 4 3 3 2 2 1 1 1 2 2 1 1 1 0 0 0 0 0 1 1 1 1 1 1 0 2 4 5
4 5 5 3 3 3 4 3 2 2 2 3 3 3 4 4 4 3 2 2 2 2 2 2 2 1 1 1 0 0 0 1 1 1 1 1 1 1 1 0 1 3 4
4 4 5 4 3 3 3 3 2 2 2 3 3 3 4 4 4 3 2 2 2 2 2 2 2 1 1 1 0 0 1 1 1 1 1 1 1 1 1 1 1 2 3
4 5 5 5 4 3 4 4 3 3 3 3 3 4 5 5 5 4 3 2 2 2 3 3 2 2 1 1 0 1 1 1 2 2 1 1 1 1 1 1 1 0 1
5 5 5 5 5 4 4 4 3 3 3 3 3 3 4 4 5 4 4 3 2 2 2 3 3 2 1 1 1 1 1 1 2 1 1 2 2 1 1 1 1 0 1
6 6 5 5 5 4 4 3 3 2 2 2 3 2 3 4 4 4 4 3 3 2 3 3 3 3 2 1 1 2 2 2 1 2 2 2 2 1 1 1 1 1 0
5 5 5 6 5 5 5 5 5 4 4 3 3 3 3 3 3 4 4 4 3 2 3 3 2 2 3 2 1 1 1 2 1 2 2 2 2 2 2 1 1 1 1
5 5 5 5 5 6 5 6 6 4 2 3 3 4 3 3 3 3 4 4 3 2 3 3 2 2 2 2 2 1 1 1 1 2 3 2 2 2 2 1 1 1 1
5 5 5 6 6 6 6 5 6 6 5 4 4 4 3 2 2 3 3 3 3 2 3 3 3 3 2 2 1 1 1 2 1 1 2 2 3 2 2 1 1 1 1
Wind_Direction
119 132 138 132 128 123 119 115 112 108 107 103 102 100 105 104 102 103 101 97 94 92 91 90 88 87 84 82 81 79 78 77 76 75 74 74 73 71 68 66 67 65 67
127 135 140 134 131 128 123 118 112 109 109 107 104 101 102 104 103 104 105 102 99 96 93 91 89 87 84 84 82 81 80 79 78 77 73 74 73 72 69 67 69 68 67
124 134 141 136 132 129 124 120 114 112 110 109 105 104 101 103 104 104 105 105 102 98 95 91 90 90 86 86 85 83 81 79 75 74 74 69 68 71 71 68 69 68 67
124 134 143 138 133 130 127 124 120 116 113 110 108 105 105 102 106 105 104 105 103 99 97 94 92 94 92 90 88 83 78 70 64 70 71 67 63 70 70 66 64 66 65
117 129 141 139 136 133 131 128 124 120 116 114 112 109 109 104 103 105 104 104 103 100 97 95 95 97 94 92 88 83 75 62 60 69 65 67 63 70 69 66 62 61 61
118 121 138 142 140 137 134 130 127 123 120 118 114 112 110 109 103 104 102 100 101 102 98 96 96 96 96 95 92 85 72 61 64 71 66 67 65 72 71 68 64 60 58
118 122 137 145 143 141 138 134 130 127 124 121 118 116 116 114 108 104 105 102 101 101 101 99 99 98 95 92 87 79 66 56 77 74 73 68 68 71 70 66 63 60 58
117 123 136 141 144 144 141 138 134 132 130 126 122 120 120 116 116 109 109 106 104 104 103 101 100 101 98 94 88 70 40 41 72 80 76 71 73 72 70 65 61 57 56
114 120 135 147 148 146 142 139 138 134 132 129 125 121 117 116 117 121 110 108 107 107 105 102 101 97 98 97 93 64 22 24 45 73 81 75 77 75 71 65 58 56 54
103 124 136 145 151 154 149 143 140 137 133 129 125 121 118 117 119 122 118 109 113 111 107 104 102 101 97 101 104 56 359 5 77 73 71 78 78 77 73 67 59 54 49
103 120 136 145 152 156 158 153 146 140 137 132 132 129 127 134 133 128 122 118 121 121 115 108 104 106 104 120 155 226 316 97 95 84 75 82 82 78 73 65 53 46 43
158 141 137 144 155 161 160 156 157 155 152 152 153 154 157 140 129 125 126 127 131 133 128 124 118 119 129 173 224 235 226 111 105 98 91 88 86 81 72 59 48 38 30
168 158 152 154 157 164 158 158 161 158 159 161 161 161 145 130 129 125 135 135 145 152 152 146 154 179 134 106 180 197 115 89 91 93 98 96 85 74 57 46 35 25 18
171 176 171 167 166 167 163 161 164 160 164 164 162 155 146 141 136 138 150 159 167 170 165 170 186 151 106 80 108 87 77 89 97 96 101 98 84 60 44 36 14 6 4
183 183 183 173 182 172 162 165 165 167 163 160 156 159 152 149 152 143 156 160 161 164 169 175 159 127 108 51 64 72 66 86 105 108 115 111 99 69 32 7 354 354 352
193 187 186 176 186 178 164 166 172 171 162 157 157 163 156 151 151 143 143 153 148 164 172 168 150 136 131 90 66 66 63 67 98 112 127 132 119 95 35 357 348 348 346
189 181 181 186 181 183 172 168 167 171 164 160 159 159 153 148 148 146 144 142 140 155 151 129 120 112 106 84 75 69 73 67 75 109 123 133 139 124 87 359 344 343 344
182 173 171 195 179 193 176 164 162 164 162 161 160 157 154 151 151 146 146 146 132 134 142 133 127 116 127 124 131 137 135 149 136 122 111 129 137 137 135 12 340 332 336
186 174 169 178 188 195 175 156 155 147 157 158 158 156 155 156 156 144 148 157 132 131 152 144 128 143 147 121 151 188 220 178 187 169 143 145 147 150 154 190 301 319 325
180 173 171 173 188 187 170 152 148 152 161 157 163 161 156 157 158 147 149 156 135 135 157 149 148 143 146 157 240 251 238 200 202 195 203 172 160 165 166 200 238 289 317
170 173 178 178 185 189 175 168 167 177 170 163 169 170 169 166 159 152 150 158 139 147 172 161 146 141 142 143 83 307 286 229 207 200 192 181 205 199 197 208 205 213 291
172 173 178 182 186 196 184 168 166 168 169 165 168 172 173 171 166 161 155 163 149 143 166 164 150 149 168 157 155 176 275 303 261 223 205 215 222 213 218 199 208 255 281
176 179 185 183 188 193 173 147 142 148 144 153 167 174 183 179 174 166 158 159 156 153 175 175 169 164 173 207 185 169 170 224 290 260 225 216 211 215 235 224 225 248 255
180 176 176 180 187 185 163 158 166 180 179 179 174 172 170 174 165 156 151 153 155 156 173 180 174 170 164 186 228 240 218 190 185 284 276 234 217 224 220 233 232 240 263
173 168 173 181 188 178 165 169 175 177 166 156 152 161 163 160 155 155 156 161 156 157 171 170 163 163 168 174 186 202 247 276 207 202 264 278 277 242 217 215 208 246 256
162 161 174 183 186 175 170 173 173 169 159 157 161 168 167 160 162 163 154 159 151 154 169 167 166 162 164 164 175 176 185 192 207 217 240 263 273 265 244 220 218 236 247